カタログに戻る

SKYNET 4A

運用中軍事GEO
NORAD 20401·PAYLOAD·🇬🇧 United Kingdom

打ち上げ Jan 1, 1990 から Cape Canaveral Space Force Station

Loading…

TLE

最新Source: Space-Track

元期: Sep 14, 2026, 01:45 UTC

1 20401U 90001A   26257.07340340 -.00000245  00000-0  00000-0 0  9992
2 20401  12.4713 349.1313 0013824 308.5834  68.1135  0.99001182 47656

AllMySatでSKYNET 4Aをリアルタイム追跡

Download on the App Store